Harbor Springs, MI

11:44 AM EDT on June 23, 2017 (GMT -0400)
Harbor Springs

Weather History for KMGN - November, 2013

Change the Weather History Date:

Saturday, November 9, 2013

  Actual Average (KPLN) Record (KPLN)
Temperature  
Mean Temperature 40 °F -  
Max Temperature 47 °F 43 °F 68 °F (1999)
Min Temperature 34 °F 31 °F 16 °F (2014)
Degree Days  
Heating Degree Days 24    
Moisture  
Dew Point 36 °F    
Average Humidity 87    
Maximum Humidity 97    
Minimum Humidity 70    
Precipitation  
Precipitation 0.00 in - - ()
Sea Level Pressure  
Sea Level Pressure 29.75 in    
Wind  
Wind Speed 8 mph (WSW)    
Max Wind Speed 22 mph    
Max Gust Speed 34 mph    
Visibility 8 miles    
Events Rain , Snow    
Averages and records for this station are not official NWS values.
T = Trace of Precipitation, MM = Missing Value Source: NWS Daily Summary

Daily Weather History Graph

Daily Weather History Graph

Search for Another Location

Airport or City:

Trip Planner

Search our weather history database for the weather conditions in past years. The results will help you decide how hot, cold, wet, or windy it might be!

Date:

Astronomy

Nov. 09, 2013 Rise Set
Actual Time 7:30 AM EST 5:15 PM EST
Civil Twilight 6:58 AM EST 5:47 PM EST
Nautical Twilight 6:23 AM EST 6:22 PM EST
Astronomical Twilight 5:48 AM EST 6:57 PM EST
Moon 1:03 PM EST (11/9) 11:49 PM EST (11/9)
Length of Visible Light 10h 48m
Length of Day
9h 45m
Waxing Crescent, 44% of the Moon is Illuminated
Nov 9
Waxing Crescent
Nov 10
First Quarter
Nov 17
Full
Nov 25
Last Quarter
Dec 2
New

Hourly Weather History & Observations

Time (EST) Temp. Windchill Dew Point Humidity Pressure Visibility Wind Dir Wind Speed Gust Speed Precip Events Conditions
12:15 AM 36.0 °F 32.1 °F 30.0 °F 79% 30.06 in 10.0 mi ENE 4.6 mph - N/A   Overcast
12:34 AM 37.0 °F - 30.6 °F 77% 30.06 in 10.0 mi Calm Calm - N/A   Overcast
12:54 AM 37.0 °F - 29.8 °F 75% 30.05 in 10.0 mi Calm Calm - N/A   Overcast
1:15 AM 37.0 °F 32.4 °F 30.0 °F 76% 30.03 in 10.0 mi East 5.8 mph - N/A   Overcast
1:34 AM 37.0 °F 31.0 °F 31.8 °F 81% 30.01 in 10.0 mi East 8.1 mph - N/A   Overcast
1:54 AM 37.0 °F 32.4 °F 31.3 °F 80% 30.00 in 10.0 mi East 5.8 mph - N/A   Overcast
2:15 AM 37.0 °F 30.4 °F 32.2 °F 83% 29.96 in 10.0 mi East 9.2 mph - N/A   Overcast
2:34 AM 37.0 °F 31.0 °F 32.0 °F 82% 29.96 in 10.0 mi NE 8.1 mph - N/A   Overcast
2:54 AM 37.0 °F 28.9 °F 31.6 °F 81% 29.93 in 10.0 mi ENE 12.7 mph - N/A   Overcast
3:15 AM 37.0 °F 29.8 °F 31.1 °F 79% 29.92 in 10.0 mi NE 10.4 mph 16.1 mph N/A   Overcast
3:34 AM 37.0 °F 29.3 °F 31.1 °F 79% 29.89 in 10.0 mi East 11.5 mph 16.1 mph N/A   Overcast
3:55 AM 37.0 °F 30.4 °F 30.9 °F 79% 29.87 in 10.0 mi ENE 9.2 mph - N/A   Overcast
4:14 AM 39.6 °F 34.7 °F 31.6 °F 73% 29.87 in 10.0 mi East 6.9 mph - N/A   Overcast
4:34 AM 39.4 °F 35.2 °F 32.2 °F 75% 29.86 in 5.0 mi ESE 5.8 mph - N/A   Overcast
4:55 AM 34.9 °F 28.3 °F 32.0 °F 89% 29.84 in 4.0 mi East 8.1 mph - N/A Snow Light Snow
5:14 AM 34.7 °F 27.5 °F 32.9 °F 93% 29.83 in 3.0 mi ENE 9.2 mph 18.4 mph N/A Snow Light Snow
5:35 AM 34.3 °F 26.5 °F 32.9 °F 94% 29.81 in 1.2 mi ENE 10.4 mph - N/A Snow Light Snow
5:54 AM 34.7 °F 27.5 °F 33.4 °F 95% 29.80 in 2.5 mi ENE 9.2 mph - N/A Snow Light Snow
6:14 AM 34.7 °F 27.5 °F 33.4 °F 95% 29.79 in 2.0 mi ENE 9.2 mph - N/A Snow Light Snow
6:35 AM 34.5 °F 28.6 °F 33.4 °F 96% 29.78 in 0.8 mi ENE 6.9 mph - N/A Snow Light Snow
6:54 AM 34.7 °F 28.8 °F 33.8 °F 97% 29.77 in 2.0 mi ENE 6.9 mph - N/A Snow Light Snow
7:14 AM 34.7 °F 28.8 °F 33.8 °F 97% 29.76 in 3.0 mi NE 6.9 mph - N/A Snow Light Snow
7:35 AM 34.7 °F 29.6 °F 33.8 °F 97% 29.75 in 7.0 mi ENE 5.8 mph - N/A   Overcast
7:54 AM 34.5 °F 30.4 °F 33.8 °F 97% 29.74 in 10.0 mi East 4.6 mph - N/A   Overcast
8:14 AM 34.7 °F 28.1 °F 33.8 °F 97% 29.73 in 10.0 mi ENE 8.1 mph - N/A   Overcast
8:35 AM 34.7 °F 28.8 °F 33.4 °F 95% 29.72 in 10.0 mi ENE 6.9 mph - N/A   Overcast
8:54 AM 34.7 °F 28.8 °F 33.4 °F 95% 29.71 in 10.0 mi East 6.9 mph - N/A   Overcast
9:14 AM 37.0 °F 33.3 °F 35.6 °F 95% 29.70 in 10.0 mi ESE 4.6 mph - N/A   Overcast
9:35 AM 37.0 °F 32.4 °F 35.1 °F 93% 29.69 in 10.0 mi ENE 5.8 mph - N/A   Overcast
9:54 AM 37.0 °F - 34.7 °F 91% 29.68 in 10.0 mi Calm Calm - N/A   Overcast
10:14 AM 37.4 °F - 34.9 °F 91% 29.66 in 10.0 mi Calm Calm - N/A   Overcast
10:34 AM 40.6 °F 36.7 °F 37.4 °F 88% 29.66 in 10.0 mi SSE 5.8 mph - N/A   Overcast
10:54 AM 41.2 °F 39.2 °F 37.6 °F 87% 29.65 in 10.0 mi South 3.5 mph - N/A   Overcast
11:14 AM 42.3 °F 40.5 °F 38.7 °F 87% 29.65 in 10.0 mi South 3.5 mph - N/A   Overcast
11:34 AM 42.3 °F 37.9 °F 38.7 °F 87% 29.64 in 10.0 mi South 6.9 mph - N/A   Overcast
11:54 AM 43.2 °F 38.4 °F 39.6 °F 87% 29.64 in 7.0 mi South 8.1 mph - N/A Rain Rain
12:14 PM 43.7 °F 40.3 °F 40.5 °F 88% 29.63 in 7.0 mi SSW 5.8 mph - N/A Rain Light Rain
12:34 PM 47.3 °F - 44.4 °F 90% 29.62 in 7.0 mi SSW 10.4 mph 16.1 mph N/A   Drizzle
12:54 PM 46.2 °F 41.2 °F 43.7 °F 91% 29.62 in 5.0 mi SSW 10.4 mph 17.3 mph N/A Rain Light Rain
1:15 PM 45.5 °F 39.2 °F 43.7 °F 93% 29.61 in 4.0 mi SSW 13.8 mph 20.7 mph N/A Rain Rain
1:34 PM 44.8 °F 38.7 °F 43.2 °F 94% 29.61 in 2.5 mi SW 12.7 mph 17.3 mph N/A Rain Heavy Rain
1:54 PM 45.3 °F 40.1 °F 43.9 °F 95% 29.61 in 2.0 mi SW 10.4 mph 16.1 mph N/A   Heavy Drizzle
2:15 PM 46.8 °F - 45.7 °F 96% 29.61 in 1.8 mi WSW 11.5 mph 19.6 mph N/A Rain Heavy Rain
2:34 PM 46.6 °F - 45.3 °F 95% 29.61 in 2.0 mi WSW 10.4 mph 23.0 mph N/A   Heavy Drizzle
2:54 PM 45.1 °F 38.8 °F 43.9 °F 95% 29.62 in 2.0 mi West 13.8 mph 25.3 mph N/A Rain Heavy Rain
3:15 PM 44.8 °F 39.0 °F 43.3 °F 95% 29.62 in 3.0 mi WSW 11.5 mph 24.2 mph N/A Rain Rain
3:34 PM 44.8 °F 38.0 °F 43.2 °F 94% 29.63 in 4.0 mi West 15.0 mph 25.3 mph N/A   Drizzle
3:54 PM 45.5 °F 39.6 °F 42.1 °F 88% 29.63 in 10.0 mi West 12.7 mph 24.2 mph N/A   Overcast
4:15 PM 45.0 °F 37.9 °F 41.4 °F 87% 29.64 in 10.0 mi West 16.1 mph 24.2 mph N/A Rain Rain
4:34 PM 43.7 °F 36.3 °F 40.5 °F 88% 29.65 in 5.0 mi West 16.1 mph 25.3 mph N/A Rain Light Rain
4:55 PM 42.8 °F 36.2 °F 39.9 °F 90% 29.66 in 7.0 mi West 12.7 mph 20.7 mph N/A Rain Light Rain
5:14 PM 42.4 °F 35.3 °F 39.4 °F 89% 29.66 in 7.0 mi West 13.8 mph 26.5 mph N/A Rain Light Rain
5:34 PM 42.1 °F 35.2 °F 39.2 °F 90% 29.67 in 7.0 mi West 12.7 mph 23.0 mph N/A Rain Light Rain
5:55 PM 41.0 °F 32.8 °F 37.6 °F 88% 29.69 in 7.0 mi West 16.1 mph 25.3 mph N/A Rain Light Rain
6:14 PM 41.0 °F 34.3 °F 37.6 °F 88% 29.69 in 7.0 mi West 11.5 mph 25.3 mph N/A   Drizzle
6:34 PM 41.0 °F 33.5 °F 37.8 °F 88% 29.70 in 7.0 mi West 13.8 mph 23.0 mph N/A Rain Rain
6:55 PM 41.0 °F 33.5 °F 37.6 °F 88% 29.71 in 10.0 mi West 13.8 mph 18.4 mph N/A Rain Rain
7:14 PM 40.1 °F 32.0 °F 36.7 °F 88% 29.72 in 5.0 mi West 15.0 mph 28.8 mph N/A Rain Rain
7:34 PM 39.6 °F 31.0 °F 37.8 °F 93% 29.72 in 10.0 mi West 16.1 mph 24.2 mph N/A   Light Drizzle
7:55 PM 39.6 °F 31.0 °F 37.8 °F 93% 29.72 in 10.0 mi West 16.1 mph 23.0 mph N/A   Overcast
8:14 PM 39.7 °F 30.6 °F 37.6 °F 92% 29.73 in 10.0 mi West 18.4 mph 25.3 mph N/A   Overcast
8:34 PM 40.3 °F 31.6 °F 37.8 °F 91% 29.73 in 10.0 mi West 17.3 mph 27.6 mph N/A   Overcast
8:55 PM 42.1 °F 34.5 °F 36.3 °F 80% 29.73 in 10.0 mi West 15.0 mph 27.6 mph N/A   Overcast
9:14 PM 42.3 °F 33.8 °F 35.6 °F 77% 29.74 in 10.0 mi West 18.4 mph 33.4 mph N/A   Drizzle
9:34 PM 42.3 °F 33.1 °F 36.1 °F 79% 29.73 in 10.0 mi West 21.9 mph 31.1 mph N/A Rain Light Rain
9:55 PM 42.8 °F 35.8 °F 34.7 °F 73% 29.74 in 10.0 mi West 13.8 mph 31.1 mph N/A   Overcast
10:14 PM 43.2 °F 35.6 °F 34.5 °F 72% 29.74 in 10.0 mi West 16.1 mph 26.5 mph N/A   Overcast
10:34 PM 42.6 °F 35.6 °F 33.8 °F 71% 29.74 in 10.0 mi West 13.8 mph 34.5 mph N/A   Overcast
10:55 PM 42.8 °F 34.0 °F 33.6 °F 70% 29.74 in 10.0 mi West 20.7 mph 28.8 mph N/A   Overcast
11:14 PM 43.0 °F 35.7 °F 34.2 °F 71% 29.74 in 10.0 mi West 15.0 mph 32.2 mph N/A   Overcast
11:34 PM 42.8 °F 35.1 °F 34.0 °F 71% 29.74 in 10.0 mi West 16.1 mph 29.9 mph N/A   Overcast
11:55 PM 42.8 °F 35.1 °F 33.8 °F 70% 29.74 in 10.0 mi West 16.1 mph 28.8 mph N/A   Overcast